Location: Del Amo
(33.8464°N, 118.2104°W)
Time: 08:31:47
(UTC+00:00)

Vanguard 3 - Pass Details

Date: 13 September 2024
Orbit: 507 x 3223 km, 33.3° (Epoch: 09 October)

Event Time Altitude Azimuth Distance (km) Brightness Sun altitude
Rises 19:09:05 0° 279° (W) 7,058 11.8 58.2°
Reaches altitude 10° 19:14:10 10° 279° (W) 5,842 11.5 58.5°
Maximum altitude 19:31:10 78° 196° (SSW) 2,148 11.0 59.3°
Drops below altitude 10° 19:40:54 10° 112° (ESE) 3,552 10.7 59.5°
Sets 19:43:15 0° 111° (ESE) 4,248 11.0 59.5°
